| time (UTC) | temp C | wind direction | speed KPH | gust KPH | rain 1hr cm | rain 24hr cm | rain mn cm | humidity % | barometer mb |
| 20260507095330 | 13 | 9 | 0.0 | 0.0 | 0.00 | 0.00 | 0.00 | 86 | 1016.2 |
| 20260507094827 | 13 | 9 | 0.0 | 0.0 | 0.00 | 0.00 | 0.00 | 86 | 1016.2 |
| 20260507094323 | 13 | 17 | 0.0 | 0.0 | 0.00 | 0.00 | 0.00 | 86 | 1016.1 |
| 20260507093822 | 13 | 11 | 0.0 | 0.0 | 0.00 | 0.00 | 0.00 | 86 | 1016.2 |
| 20260507093322 | 13 | 19 | 0.0 | 0.0 | 0.00 | 0.00 | 0.00 | 86 | 1016.3 |
| 20260507092834 | 13 | 23 | 0.0 | 0.0 | 0.00 | 0.00 | 0.00 | 86 | 1016.2 |
| 20260507092353 | 14 | 359 | 0.0 | 0.0 | 0.00 | 0.00 | 0.00 | 86 | 1016.3 |
| 20260507091829 | 14 | 6 | 0.0 | 0.0 | 0.00 | 0.00 | 0.00 | 86 | 1016.3 |
| 20260507091347 | 14 | 6 | 0.0 | 0.0 | 0.00 | 0.00 | 0.00 | 86 | 1016.2 |
| 20260507090822 | 14 | 6 | 0.0 | 0.0 | 0.00 | 0.00 | 0.00 | 86 | 1016.3 |
| 20260507090317 | 14 | 36 | 0.0 | 3.2 | 0.00 | 0.00 | 0.00 | 86 | 1016.4 |
| 20260507085829 | 14 | 35 | 0.0 | 4.8 | 0.00 | 0.00 | 0.00 | 86 | 1016.5 |
| 20260507085320 | 13 | 24 | 3.2 | 4.8 | 0.00 | 0.00 | 0.00 | 86 | 1016.5 |
| 20260507084818 | 14 | 358 | 0.0 | 0.0 | 0.00 | 0.00 | 0.00 | 86 | 1016.5 |
| 20260507084334 | 14 | 357 | 0.0 | 0.0 | 0.00 | 0.00 | 0.00 | 85 | 1016.6 |
| 20260507083830 | 14 | 356 | 0.0 | 0.0 | 0.00 | 0.00 | 0.00 | 85 | 1016.6 |
| 20260507083328 | 14 | 30 | 0.0 | 0.0 | 0.00 | 0.00 | 0.00 | 85 | 1016.5 |
| 20260507082819 | 14 | 77 | 0.0 | 0.0 | 0.00 | 0.00 | 0.00 | 85 | 1016.8 |
| 20260507082317 | 15 | 77 | 0.0 | 0.0 | 0.00 | 0.00 | 0.00 | 85 | 1016.7 |
| 20260507081815 | 15 | 77 | 0.0 | 0.0 | 0.00 | 0.00 | 0.00 | 85 | 1016.7 |
| 20260507081332 | 15 | 77 | 0.0 | 0.0 | 0.00 | 0.00 | 0.00 | 85 | 1016.8 |
| 20260507080829 | 15 | 77 | 0.0 | 0.0 | 0.00 | 0.00 | 0.00 | 85 | 1016.8 |
| 20260507080326 | 15 | 77 | 0.0 | 0.0 | 0.00 | 0.00 | 0.00 | 85 | 1016.8 |
| 20260507075818 | 15 | 77 | 0.0 | 0.0 | 0.00 | 0.00 | 0.00 | 85 | 1016.9 |
| 20260507075404 | 15 | 80 | 0.0 | 0.0 | 0.00 | 0.00 | 0.00 | 85 | 1017.0 |
| 20260507074822 | 15 | 80 | 0.0 | 0.0 | 0.00 | 0.00 | 0.00 | 85 | 1016.9 |
| 20260507074320 | 15 | 80 | 0.0 | 0.0 | 0.00 | 0.00 | 0.00 | 84 | 1016.9 |
| 20260507073838 | 15 | 80 | 0.0 | 0.0 | 0.00 | 0.00 | 0.00 | 84 | 1017.0 |
| 20260507073336 | 15 | 84 | 0.0 | 0.0 | 0.00 | 0.00 | 0.00 | 84 | 1017.0 |
| 20260507072837 | 15 | 58 | 0.0 | 0.0 | 0.00 | 0.00 | 0.00 | 84 | 1016.9 |
| 20260507072334 | 15 | 25 | 0.0 | 0.0 | 0.00 | 0.00 | 0.00 | 83 | 1016.9 |
| 20260507071830 | 15 | 25 | 0.0 | 0.0 | 0.00 | 0.00 | 0.00 | 83 | 1017.0 |
| 20260507071327 | 15 | 26 | 0.0 | 0.0 | 0.00 | 0.00 | 0.00 | 83 | 1017.1 |
| 20260507070844 | 15 | 354 | 0.0 | 0.0 | 0.00 | 0.00 | 0.00 | 83 | 1017.1 |
| 20260507070320 | 15 | 353 | 0.0 | 0.0 | 0.00 | 0.00 | 0.00 | 83 | 1017.1 |
| 20260507065833 | 15 | 324 | 0.0 | 0.0 | 0.00 | 0.00 | 0.00 | 83 | 1017.1 |
| 20260507065330 | 15 | 262 | 0.0 | 0.0 | 0.00 | 0.00 | 0.00 | 83 | 1017.0 |
| 20260507064829 | 15 | 262 | 0.0 | 0.0 | 0.00 | 0.00 | 0.00 | 82 | 1017.0 |
| 20260507064343 | 15 | 262 | 0.0 | 0.0 | 0.00 | 0.00 | 0.00 | 82 | 1017.1 |
| 20260507063821 | 15 | 262 | 0.0 | 0.0 | 0.00 | 0.00 | 0.00 | 82 | 1017.0 |
| 20260507063318 | 15 | 262 | 0.0 | 0.0 | 0.00 | 0.00 | 0.00 | 82 | 1017.0 |
| 20260507062829 | 15 | 262 | 0.0 | 0.0 | 0.00 | 0.00 | 0.00 | 82 | 1017.1 |
| 20260507062327 | 15 | 262 | 0.0 | 0.0 | 0.00 | 0.00 | 0.00 | 82 | 1017.1 |
| 20260507061825 | 15 | 262 | 0.0 | 0.0 | 0.00 | 0.00 | 0.00 | 82 | 1017.0 |
| 20260507061323 | 15 | 262 | 0.0 | 0.0 | 0.00 | 0.00 | 0.00 | 82 | 1017.1 |
| 20260507060841 | 15 | 262 | 0.0 | 0.0 | 0.00 | 0.00 | 0.00 | 82 | 1017.2 |
| 20260507060314 | 16 | 262 | 0.0 | 0.0 | 0.00 | 0.00 | 0.00 | 82 | 1017.1 |
| 20260507055836 | 16 | 264 | 0.0 | 0.0 | 0.00 | 0.00 | 0.00 | 82 | 1017.2 |
| 20260507055354 | 16 | 264 | 0.0 | 0.0 | 0.00 | 0.00 | 0.00 | 81 | 1017.2 |
| 20260507054832 | 16 | 264 | 0.0 | 1.6 | 0.00 | 0.00 | 0.00 | 82 | 1017.2 |
| 20260507054328 | 16 | 279 | 0.0 | 3.2 | 0.00 | 0.00 | 0.00 | 81 | 1017.2 |
| 20260507053822 | 16 | 279 | 0.0 | 3.2 | 0.00 | 0.00 | 0.00 | 81 | 1017.2 |
| 20260507053339 | 16 | 268 | 0.0 | 1.6 | 0.00 | 0.00 | 0.00 | 81 | 1017.3 |
| 20260507052849 | 16 | 279 | 0.0 | 4.8 | 0.00 | 0.00 | 0.00 | 81 | 1017.3 |
| 20260507052323 | 16 | 279 | 0.0 | 4.8 | 0.00 | 0.00 | 0.00 | 81 | 1017.3 |
| 20260507051840 | 16 | 278 | 1.6 | 3.2 | 0.00 | 0.00 | 0.00 | 81 | 1017.2 |
| 20260507051336 | 16 | 287 | 0.0 | 4.8 | 0.00 | 0.00 | 0.00 | 81 | 1017.2 |
| 20260507050827 | 16 | 291 | 0.0 | 4.8 | 0.00 | 0.00 | 0.00 | 81 | 1017.2 |
| 20260507050320 | 16 | 318 | 0.0 | 4.8 | 0.00 | 0.00 | 0.00 | 81 | 1017.1 |
| 20260507045830 | 16 | 310 | 1.6 | 4.8 | 0.00 | 0.00 | 0.00 | 81 | 1017.1 |
| 20260507045327 | 16 | 288 | 0.0 | 0.0 | 0.00 | 0.00 | 0.00 | 82 | 1017.1 |
| 20260507044824 | 16 | 269 | 0.0 | 0.0 | 0.00 | 0.00 | 0.00 | 81 | 1017.2 |
| 20260507044321 | 16 | 269 | 0.0 | 0.0 | 0.00 | 0.00 | 0.00 | 81 | 1017.2 |
| 20260507043818 | 16 | 282 | 0.0 | 6.4 | 0.00 | 0.00 | 0.00 | 81 | 1017.1 |
| 20260507043316 | 16 | 310 | 3.2 | 6.4 | 0.00 | 0.00 | 0.00 | 81 | 1017.1 |
| 20260507042827 | 16 | 311 | 1.6 | 6.4 | 0.00 | 0.00 | 0.00 | 81 | 1017.2 |
| 20260507042329 | 16 | 301 | 3.2 | 6.4 | 0.00 | 0.00 | 0.00 | 81 | 1017.2 |
| 20260507041823 | 16 | 282 | 1.6 | 6.4 | 0.00 | 0.00 | 0.00 | 80 | 1017.1 |
| 20260507041319 | 16 | 290 | 1.6 | 9.7 | 0.00 | 0.00 | 0.00 | 80 | 1017.2 |
| 20260507040832 | 16 | 309 | 6.4 | 9.7 | 0.00 | 0.00 | 0.00 | 80 | 1017.0 |
| 20260507040347 | 16 | 285 | 1.6 | 6.4 | 0.00 | 0.00 | 0.00 | 79 | 1017.1 |
| 20260507035837 | 16 | 287 | 1.6 | 8.0 | 0.00 | 0.00 | 0.00 | 79 | 1017.1 |
| 20260507035346 | 16 | 295 | 1.6 | 8.0 | 0.00 | 0.00 | 0.00 | 79 | 1017.1 |
| 20260507034841 | 16 | 262 | 3.2 | 6.4 | 0.00 | 0.00 | 0.00 | 79 | 1017.0 |
| 20260507034336 | 16 | 314 | 3.2 | 6.4 | 0.00 | 0.00 | 0.00 | 79 | 1017.0 |
| 20260507033852 | 16 | 285 | 3.2 | 6.4 | 0.00 | 0.00 | 0.00 | 79 | 1016.9 |
| 20260507033343 | 16 | 332 | 0.0 | 4.8 | 0.00 | 0.00 | 0.00 | 79 | 1016.8 |
| 20260507032833 | 16 | 281 | 0.0 | 8.0 | 0.00 | 0.00 | 0.00 | 79 | 1016.7 |
| 20260507032330 | 16 | 311 | 3.2 | 11.3 | 0.00 | 0.00 | 0.00 | 79 | 1016.7 |
| 20260507031828 | 16 | 328 | 6.4 | 11.3 | 0.00 | 0.00 | 0.00 | 80 | 1016.7 |
| 20260507031325 | 16 | 344 | 4.8 | 8.0 | 0.00 | 0.00 | 0.00 | 80 | 1016.7 |
| 20260507030821 | 16 | 324 | 3.2 | 8.0 | 0.00 | 0.00 | 0.00 | 80 | 1016.6 |
| 20260507030315 | 16 | 292 | 3.2 | 8.0 | 0.00 | 0.00 | 0.00 | 81 | 1016.7 |
| 20260507025828 | 16 | 308 | 1.6 | 9.7 | 0.00 | 0.00 | 0.00 | 81 | 1016.6 |
| 20260507025325 | 17 | 287 | 4.8 | 9.7 | 0.00 | 0.00 | 0.00 | 80 | 1016.6 |
| 20260507024821 | 17 | 282 | 3.2 | 8.0 | 0.00 | 0.00 | 0.00 | 80 | 1016.4 |
| 20260507024338 | 17 | 308 | 1.6 | 9.7 | 0.00 | 0.00 | 0.00 | 80 | 1016.3 |
| 20260507023855 | 17 | 281 | 4.8 | 9.7 | 0.00 | 0.00 | 0.00 | 79 | 1016.3 |
| 20260507023350 | 17 | 316 | 1.6 | 9.7 | 0.00 | 0.00 | 0.00 | 80 | 1016.3 |
| 20260507022821 | 17 | 325 | 4.8 | 9.7 | 0.00 | 0.00 | 0.00 | 79 | 1016.3 |
| 20260507022317 | 17 | 287 | 1.6 | 8.0 | 0.00 | 0.00 | 0.00 | 78 | 1016.1 |
| 20260507021835 | 17 | 307 | 1.6 | 14.5 | 0.00 | 0.00 | 0.00 | 77 | 1016.1 |
| 20260507021331 | 17 | 276 | 6.4 | 14.5 | 0.00 | 0.00 | 0.00 | 77 | 1016.1 |
| 20260507020828 | 18 | 300 | 4.8 | 8.0 | 0.00 | 0.00 | 0.00 | 76 | 1016.1 |
| 20260507020324 | 18 | 266 | 1.6 | 9.7 | 0.00 | 0.00 | 0.00 | 77 | 1016.1 |
| 20260507015816 | 18 | 250 | 4.8 | 9.7 | 0.00 | 0.00 | 0.00 | 77 | 1016.0 |
| 20260507015332 | 18 | 300 | 3.2 | 16.1 | 0.00 | 0.00 | 0.00 | 77 | 1015.9 |
| 20260507014829 | 18 | 300 | 8.0 | 14.5 | 0.00 | 0.00 | 0.00 | 77 | 1016.0 |
| 20260507014326 | 18 | 275 | 3.2 | 12.9 | 0.00 | 0.00 | 0.00 | 76 | 1016.0 |
| 20260507013838 | 18 | 293 | 4.8 | 14.5 | 0.00 | 0.00 | 0.00 | 77 | 1016.0 |
| 20260507013355 | 18 | 297 | 6.4 | 14.5 | 0.00 | 0.00 | 0.00 | 75 | 1016.0 |
| 20260507012826 | 18 | 286 | 6.4 | 14.5 | 0.00 | 0.00 | 0.00 | 74 | 1016.0 |
| 20260507012315 | 18 | 316 | 6.4 | 14.5 | 0.00 | 0.00 | 0.00 | 74 | 1015.9 |
| 20260507011834 | 18 | 328 | 6.4 | 19.3 | 0.00 | 0.00 | 0.00 | 74 | 1016.0 |
| 20260507011331 | 18 | 300 | 6.4 | 19.3 | 0.00 | 0.00 | 0.00 | 74 | 1015.9 |
| 20260507010827 | 18 | 344 | 9.7 | 17.7 | 0.00 | 0.00 | 0.00 | 72 | 1015.8 |
| 20260507010321 | 19 | 278 | 8.0 | 19.3 | 0.00 | 0.00 | 0.00 | 70 | 1015.8 |
| 20260507005831 | 19 | 292 | 8.0 | 20.9 | 0.00 | 0.00 | 0.00 | 69 | 1015.8 |
| 20260507005330 | 19 | 308 | 11.3 | 20.9 | 0.00 | 0.00 | 0.00 | 69 | 1015.8 |
| 20260507004825 | 19 | 266 | 9.7 | 20.9 | 0.00 | 0.00 | 0.00 | 69 | 1015.8 |
| 20260507004341 | 19 | 289 | 9.7 | 19.3 | 0.00 | 0.00 | 0.00 | 69 | 1015.7 |
| 20260507003816 | 19 | 277 | 9.7 | 19.3 | 0.00 | 0.00 | 0.00 | 68 | 1015.7 |
| 20260507003330 | 19 | 291 | 9.7 | 19.3 | 0.00 | 0.00 | 0.00 | 69 | 1015.8 |
| 20260507002842 | 19 | 299 | 8.0 | 14.5 | 0.00 | 0.00 | 0.00 | 69 | 1015.8 |
| 20260507002337 | 19 | 285 | 6.4 | 19.3 | 0.00 | 0.00 | 0.00 | 71 | 1015.7 |
| 20260507001832 | 19 | 266 | 8.0 | 19.3 | 0.00 | 0.00 | 0.00 | 72 | 1015.8 |
| 20260507001330 | 19 | 296 | 11.3 | 19.3 | 0.00 | 0.00 | 0.00 | 72 | 1015.8 |
| 20260507000827 | 19 | 285 | 8.0 | 20.9 | 0.00 | 0.00 | 0.00 | 72 | 1015.7 |
| 20260507000321 | 19 | 302 | 12.9 | 20.9 | 0.00 | 0.00 | 0.00 | 72 | 1015.6 |
| 20260506235832 | 19 | 314 | 11.3 | 19.3 | 0.00 | 0.00 | 0.00 | 70 | 1015.7 |
| 20260506235329 | 19 | 295 | 9.7 | 20.9 | 0.00 | 0.00 | 0.00 | 72 | 1015.6 |
| 20260506234845 | 19 | 305 | 12.9 | 20.9 | 0.00 | 0.00 | 0.00 | 70 | 1015.5 |
| 20260506234321 | 19 | 281 | 6.4 | 19.3 | 0.00 | 0.00 | 0.00 | 73 | 1015.6 |
| 20260506233817 | 19 | 281 | 4.8 | 20.9 | 0.00 | 0.00 | 0.00 | 73 | 1015.7 |
| 20260506233328 | 19 | 288 | 9.7 | 20.9 | 0.00 | 0.00 | 0.00 | 73 | 1015.6 |
| 20260506232820 | 19 | 275 | 6.4 | 19.3 | 0.00 | 0.00 | 0.00 | 74 | 1015.6 |
| 20260506232338 | 19 | 304 | 11.3 | 19.3 | 0.00 | 0.00 | 0.00 | 73 | 1015.8 |
| 20260506231834 | 19 | 306 | 9.7 | 20.9 | 0.00 | 0.00 | 0.00 | 74 | 1015.9 |
| 20260506231331 | 19 | 304 | 9.7 | 20.9 | 0.00 | 0.00 | 0.00 | 74 | 1015.8 |
| 20260506230848 | 19 | 307 | 8.0 | 19.3 | 0.00 | 0.00 | 0.00 | 74 | 1015.8 |
| 20260506230341 | 19 | 277 | 9.7 | 19.3 | 0.00 | 0.00 | 0.00 | 74 | 1015.8 |
| 20260506225825 | 19 | 260 | 9.7 | 19.3 | 0.00 | 0.00 | 0.00 | 73 | 1015.8 |
| 20260506225323 | 19 | 278 | 8.0 | 19.3 | 0.00 | 0.00 | 0.00 | 73 | 1015.9 |
| 20260506224818 | 19 | 314 | 12.9 | 19.3 | 0.00 | 0.00 | 0.00 | 73 | 1015.9 |
| 20260506224337 | 19 | 299 | 9.7 | 20.9 | 0.00 | 0.00 | 0.00 | 74 | 1015.9 |
| 20260506223832 | 18 | 272 | 11.3 | 22.5 | 0.00 | 0.00 | 0.00 | 74 | 1016.0 |
| 20260506223329 | 18 | 239 | 12.9 | 24.1 | 0.00 | 0.00 | 0.00 | 73 | 1016.0 |
| 20260506222839 | 19 | 266 | 12.9 | 24.1 | 0.00 | 0.00 | 0.00 | 73 | 1016.1 |
| 20260506222332 | 19 | 285 | 12.9 | 22.5 | 0.00 | 0.00 | 0.00 | 73 | 1016.1 |
| 20260506221829 | 19 | 293 | 11.3 | 20.9 | 0.00 | 0.00 | 0.00 | 72 | 1016.2 |
| 20260506221326 | 19 | 268 | 11.3 | 25.7 | 0.00 | 0.00 | 0.00 | 72 | 1016.2 |
| 20260506220843 | 19 | 346 | 9.7 | 22.5 | 0.00 | 0.00 | 0.00 | 71 | 1016.2 |
| 20260506220317 | 19 | 291 | 14.5 | 22.5 | 0.00 | 0.00 | 0.00 | 70 | 1016.4 |
| 20260506215826 | 19 | 254 | 9.7 | 22.5 | 0.00 | 0.00 | 0.00 | 71 | 1016.4 |
| 20260506215321 | 19 | 333 | 9.7 | 20.9 | 0.00 | 0.00 | 0.00 | 71 | 1016.4 |
| 20260506214818 | 19 | 289 | 9.7 | 22.5 | 0.00 | 0.00 | 0.00 | 71 | 1016.4 |
| 20260506214317 | 20 | 293 | 12.9 | 22.5 | 0.00 | 0.00 | 0.00 | 69 | 1016.5 |
| 20260506213832 | 20 | 308 | 8.0 | 22.5 | 0.00 | 0.00 | 0.00 | 71 | 1016.6 |
| 20260506213329 | 19 | 323 | 11.3 | 22.5 | 0.00 | 0.00 | 0.00 | 70 | 1016.5 |
| 20260506212821 | 19 | 321 | 12.9 | 20.9 | 0.00 | 0.00 | 0.00 | 70 | 1016.7 |
| 20260506212317 | 20 | 286 | 12.9 | 20.9 | 0.00 | 0.00 | 0.00 | 70 | 1016.6 |
| 20260506211830 | 20 | 277 | 8.0 | 24.1 | 0.00 | 0.00 | 0.00 | 69 | 1016.6 |
| 20260506211327 | 19 | 300 | 9.7 | 24.1 | 0.00 | 0.00 | 0.00 | 71 | 1016.7 |
| 20260506210824 | 19 | 248 | 11.3 | 20.9 | 0.00 | 0.00 | 0.00 | 70 | 1016.8 |
| 20260506210336 | 19 | 274 | 8.0 | 25.7 | 0.00 | 0.00 | 0.00 | 71 | 1016.9 |
| 20260506205828 | 19 | 310 | 11.3 | 25.7 | 0.00 | 0.00 | 0.00 | 70 | 1016.8 |
| 20260506205323 | 19 | 298 | 9.7 | 24.1 | 0.00 | 0.00 | 0.00 | 70 | 1016.9 |
| 20260506204819 | 19 | 265 | 12.9 | 22.5 | 0.00 | 0.00 | 0.00 | 71 | 1016.9 |
| 20260506204336 | 18 | 230 | 11.3 | 22.5 | 0.00 | 0.00 | 0.00 | 71 | 1016.9 |
| 20260506203834 | 19 | 285 | 9.7 | 16.1 | 0.00 | 0.00 | 0.00 | 69 | 1017.0 |
| 20260506203352 | 19 | 301 | 9.7 | 16.1 | 0.00 | 0.00 | 0.00 | 72 | 1017.0 |
| 20260506202843 | 19 | 221 | 9.7 | 20.9 | 0.00 | 0.00 | 0.00 | 72 | 1017.0 |
| 20260506202318 | 19 | 295 | 11.3 | 20.9 | 0.00 | 0.00 | 0.00 | 71 | 1017.1 |
| 20260506201815 | 19 | 267 | 11.3 | 19.3 | 0.00 | 0.00 | 0.00 | 71 | 1017.2 |
| 20260506201331 | 19 | 328 | 9.7 | 19.3 | 0.00 | 0.00 | 0.00 | 71 | 1017.2 |
| 20260506200827 | 19 | 287 | 11.3 | 19.3 | 0.00 | 0.00 | 0.00 | 70 | 1017.1 |
| 20260506200321 | 19 | 282 | 11.3 | 20.9 | 0.00 | 0.00 | 0.00 | 69 | 1017.1 |
| 20260506195833 | 19 | 307 | 12.9 | 20.9 | 0.00 | 0.00 | 0.00 | 71 | 1017.2 |
| 20260506195329 | 19 | 316 | 8.0 | 20.9 | 0.00 | 0.00 | 0.00 | 71 | 1017.3 |
| 20260506194847 | 18 | 293 | 9.7 | 22.5 | 0.00 | 0.00 | 0.00 | 72 | 1017.3 |
| 20260506194323 | 18 | 302 | 12.9 | 22.5 | 0.00 | 0.00 | 0.00 | 70 | 1017.4 |
| 20260506193818 | 18 | 282 | 9.7 | 20.9 | 0.00 | 0.00 | 0.00 | 71 | 1017.4 |
| 20260506193315 | 18 | 271 | 9.7 | 20.9 | 0.00 | 0.00 | 0.00 | 70 | 1017.4 |
| 20260506192844 | 18 | 313 | 8.0 | 20.9 | 0.00 | 0.00 | 0.00 | 71 | 1017.5 |
| 20260506192318 | 18 | 283 | 9.7 | 19.3 | 0.00 | 0.00 | 0.00 | 70 | 1017.4 |
| 20260506191834 | 18 | 230 | 9.7 | 22.5 | 0.00 | 0.00 | 0.00 | 69 | 1017.6 |
| 20260506191331 | 18 | 323 | 8.0 | 22.5 | 0.00 | 0.00 | 0.00 | 70 | 1017.6 |
| 20260506190826 | 18 | 256 | 11.3 | 17.7 | 0.00 | 0.00 | 0.00 | 69 | 1017.7 |
| 20260506190320 | 18 | 288 | 9.7 | 17.7 | 0.00 | 0.00 | 0.00 | 69 | 1017.6 |
| 20260506185832 | 19 | 288 | 6.4 | 16.1 | 0.00 | 0.00 | 0.00 | 69 | 1017.7 |
| 20260506185331 | 19 | 278 | 9.7 | 16.1 | 0.00 | 0.00 | 0.00 | 68 | 1017.7 |
| 20260506184849 | 19 | 293 | 8.0 | 14.5 | 0.00 | 0.00 | 0.00 | 68 | 1017.7 |
| 20260506184325 | 19 | 281 | 8.0 | 16.1 | 0.00 | 0.00 | 0.00 | 67 | 1017.7 |
| 20260506183822 | 19 | 256 | 8.0 | 12.9 | 0.00 | 0.00 | 0.00 | 66 | 1017.7 |
| 20260506183339 | 19 | 288 | 6.4 | 16.1 | 0.00 | 0.00 | 0.00 | 67 | 1017.7 |
| 20260506182845 | 19 | 274 | 8.0 | 16.1 | 0.00 | 0.00 | 0.00 | 66 | 1017.8 |
| 20260506182343 | 18 | 293 | 8.0 | 14.5 | 0.00 | 0.00 | 0.00 | 66 | 1017.8 |
| 20260506181838 | 18 | 263 | 8.0 | 14.5 | 0.00 | 0.00 | 0.00 | 66 | 1017.9 |
| 20260506181354 | 19 | 290 | 3.2 | 11.3 | 0.00 | 0.00 | 0.00 | 67 | 1017.9 |
| 20260506180832 | 18 | 277 | 4.8 | 14.5 | 0.00 | 0.00 | 0.00 | 66 | 1018.0 |
| 20260506180327 | 18 | 238 | 8.0 | 14.5 | 0.00 | 0.00 | 0.00 | 67 | 1018.0 |
| 20260506175820 | 18 | 243 | 8.0 | 12.9 | 0.00 | 0.00 | 0.00 | 68 | 1018.1 |
| 20260506175316 | 18 | 282 | 6.4 | 16.1 | 0.00 | 0.00 | 0.00 | 67 | 1018.1 |
| 20260506174832 | 19 | 286 | 8.0 | 12.9 | 0.00 | 0.00 | 0.00 | 67 | 1018.2 |
| 20260506174328 | 18 | 273 | 4.8 | 14.5 | 0.00 | 0.00 | 0.00 | 68 | 1018.2 |
| 20260506173845 | 18 | 225 | 4.8 | 16.1 | 0.00 | 0.00 | 0.00 | 69 | 1018.2 |
| 20260506173323 | 18 | 257 | 4.8 | 14.5 | 0.00 | 0.00 | 0.00 | 68 | 1018.2 |
| 20260506172824 | 18 | 285 | 8.0 | 16.1 | 0.00 | 0.00 | 0.00 | 68 | 1018.3 |
| 20260506172323 | 18 | 283 | 8.0 | 16.1 | 0.00 | 0.00 | 0.00 | 67 | 1018.3 |
| 20260506171821 | 19 | 344 | 6.4 | 14.5 | 0.00 | 0.00 | 0.00 | 69 | 1018.3 |
| 20260506171319 | 18 | 284 | 6.4 | 12.9 | 0.00 | 0.00 | 0.00 | 69 | 1018.3 |
| 20260506170815 | 18 | 285 | 6.4 | 12.9 | 0.00 | 0.00 | 0.00 | 69 | 1018.3 |
| 20260506170329 | 18 | 328 | 4.8 | 12.9 | 0.00 | 0.00 | 0.00 | 69 | 1018.3 |
| 20260506165821 | 18 | 233 | 6.4 | 12.9 | 0.00 | 0.00 | 0.00 | 68 | 1018.3 |
| 20260506165317 | 18 | 284 | 6.4 | 11.3 | 0.00 | 0.00 | 0.00 | 69 | 1018.3 |
| 20260506164834 | 18 | 288 | 4.8 | 9.7 | 0.00 | 0.00 | 0.00 | 69 | 1018.3 |
| 20260506164330 | 18 | 298 | 4.8 | 9.7 | 0.00 | 0.00 | 0.00 | 68 | 1018.3 |
| 20260506163828 | 18 | 252 | 3.2 | 9.7 | 0.00 | 0.00 | 0.00 | 67 | 1018.3 |
| 20260506163325 | 18 | 302 | 4.8 | 9.7 | 0.00 | 0.00 | 0.00 | 67 | 1018.3 |
| 20260506162817 | 18 | 330 | 3.2 | 9.7 | 0.00 | 0.00 | 0.00 | 69 | 1018.3 |
| 20260506162331 | 18 | 215 | 1.6 | 6.4 | 0.00 | 0.00 | 0.00 | 68 | 1018.2 |
| 20260506161829 | 18 | 301 | 4.8 | 6.4 | 0.00 | 0.00 | 0.00 | 68 | 1018.3 |
| 20260506161324 | 18 | 351 | 1.6 | 8.0 | 0.00 | 0.00 | 0.00 | 69 | 1018.2 |
| 20260506160820 | 18 | 311 | 1.6 | 8.0 | 0.00 | 0.00 | 0.00 | 69 | 1018.2 |
| 20260506160315 | 18 | 354 | 1.6 | 6.4 | 0.00 | 0.00 | 0.00 | 70 | 1018.2 |
| 20260506155828 | 18 | 340 | 3.2 | 6.4 | 0.00 | 0.00 | 0.00 | 69 | 1018.2 |
| 20260506155325 | 17 | 232 | 1.6 | 6.4 | 0.00 | 0.00 | 0.00 | 71 | 1018.2 |
| 20260506154822 | 17 | 330 | 4.8 | 6.4 | 0.00 | 0.00 | 0.00 | 70 | 1018.2 |
| 20260506154340 | 17 | 65 | 3.2 | 6.4 | 0.00 | 0.00 | 0.00 | 70 | 1018.1 |
| 20260506153834 | 17 | 90 | 0.0 | 8.0 | 0.00 | 0.00 | 0.00 | 71 | 1018.2 |
| 20260506153331 | 17 | 55 | 4.8 | 8.0 | 0.00 | 0.00 | 0.00 | 69 | 1018.2 |
| 20260506152825 | 17 | 19 | 0.0 | 6.4 | 0.00 | 0.00 | 0.00 | 72 | 1018.2 |
| 20260506152341 | 17 | 94 | 1.6 | 6.4 | 0.00 | 0.00 | 0.00 | 72 | 1018.1 |
| 20260506151817 | 16 | 146 | 1.6 | 4.8 | 0.00 | 0.00 | 0.00 | 72 | 1018.2 |
| 20260506151334 | 16 | 89 | 1.6 | 3.2 | 0.00 | 0.00 | 0.00 | 73 | 1018.1 |
| 20260506150830 | 16 | 72 | 1.6 | 4.8 | 0.00 | 0.00 | 0.00 | 73 | 1018.2 |
| 20260506150324 | 15 | 56 | 3.2 | 6.4 | 0.00 | 0.00 | 0.00 | 74 | 1018.2 |
| 20260506145815 | 15 | 24 | 4.8 | 6.4 | 0.00 | 0.00 | 0.00 | 74 | 1018.2 |
| 20260506145332 | 15 | 51 | 1.6 | 6.4 | 0.00 | 0.00 | 0.00 | 76 | 1018.3 |
| 20260506144830 | 15 | 82 | 1.6 | 6.4 | 0.00 | 0.00 | 0.00 | 76 | 1018.2 |
| 20260506144325 | 15 | 6 | 1.6 | 4.8 | 0.00 | 0.00 | 0.00 | 76 | 1018.2 |
| 20260506143823 | 14 | 33 | 0.0 | 4.8 | 0.00 | 0.00 | 0.00 | 77 | 1018.2 |
| 20260506143338 | 14 | 56 | 1.6 | 4.8 | 0.00 | 0.00 | 0.00 | 79 | 1018.2 |
| 20260506142822 | 13 | 60 | 1.6 | 6.4 | 0.00 | 0.00 | 0.00 | 79 | 1018.1 |
| 20260506142336 | 13 | 21 | 3.2 | 8.0 | 0.00 | 0.00 | 0.00 | 80 | 1018.1 |
| 20260506141832 | 13 | 23 | 1.6 | 8.0 | 0.00 | 0.00 | 0.00 | 81 | 1018.1 |
| 20260506141329 | 12 | 330 | 3.2 | 6.4 | 0.00 | 0.00 | 0.00 | 81 | 1018.0 |
| 20260506140826 | 12 | 11 | 1.6 | 4.8 | 0.00 | 0.00 | 0.00 | 81 | 1018.0 |
| 20260506140322 | 12 | 25 | 1.6 | 4.8 | 0.00 | 0.00 | 0.00 | 82 | 1017.9 |
| 20260506135815 | 12 | 31 | 1.6 | 8.0 | 0.00 | 0.00 | 0.00 | 82 | 1018.0 |
| 20260506135331 | 12 | 32 | 3.2 | 8.0 | 0.00 | 0.00 | 0.00 | 83 | 1017.9 |
| 20260506134826 | 11 | 33 | 4.8 | 8.0 | 0.00 | 0.00 | 0.00 | 83 | 1017.9 |
| 20260506133822 | 11 | 28 | 3.2 | 6.4 | 0.00 | 0.00 | 0.00 | 84 | 1017.7 |
| 20260506133338 | 11 | 6 | 1.6 | 6.4 | 0.00 | 0.00 | 0.00 | 84 | 1017.8 |
| 20260506132828 | 11 | 333 | 3.2 | 6.4 | 0.00 | 0.00 | 0.00 | 84 | 1017.7 |
| 20260506132326 | 11 | 17 | 0.0 | 6.4 | 0.00 | 0.00 | 0.00 | 84 | 1017.8 |
| 20260506131822 | 11 | 24 | 3.2 | 4.8 | 0.00 | 0.00 | 0.00 | 84 | 1017.8 |
| 20260506131338 | 11 | 56 | 1.6 | 6.4 | 0.00 | 0.00 | 0.00 | 84 | 1017.6 |
| 20260506130833 | 11 | 336 | 3.2 | 6.4 | 0.00 | 0.00 | 0.00 | 84 | 1017.7 |
| 20260506130329 | 11 | 32 | 1.6 | 6.4 | 0.00 | 0.00 | 0.00 | 84 | 1017.6 |
| 20260506125821 | 11 | 23 | 3.2 | 6.4 | 0.00 | 0.00 | 0.00 | 84 | 1017.6 |
| 20260506125319 | 11 | 26 | 0.0 | 1.6 | 0.00 | 0.00 | 0.00 | 85 | 1017.4 |
| 20260506124835 | 11 | 70 | 0.0 | 1.6 | 0.00 | 0.00 | 0.00 | 85 | 1017.3 |
| 20260506124351 | 11 | 65 | 0.0 | 0.0 | 0.00 | 0.00 | 0.00 | 85 | 1017.3 |
| 20260506123845 | 11 | 97 | 0.0 | 0.0 | 0.00 | 0.00 | 0.00 | 85 | 1017.1 |
| 20260506123341 | 11 | 97 | 0.0 | 0.0 | 0.00 | 0.00 | 0.00 | 84 | 1017.1 |
| 20260506122827 | 11 | 97 | 0.0 | 0.0 | 0.00 | 0.00 | 0.00 | 84 | 1017.1 |
| 20260506122323 | 11 | 97 | 0.0 | 1.6 | 0.00 | 0.00 | 0.00 | 84 | 1017.1 |
| 20260506121819 | 11 | 97 | 0.0 | 1.6 | 0.00 | 0.00 | 0.00 | 84 | 1017.1 |
| 20260506121316 | 11 | 96 | 0.0 | 1.6 | 0.00 | 0.00 | 0.00 | 84 | 1017.0 |
| 20260506120829 | 11 | 96 | 0.0 | 6.4 | 0.00 | 0.00 | 0.00 | 84 | 1017.1 |
| 20260506120324 | 11 | 46 | 0.0 | 6.4 | 0.00 | 0.00 | 0.00 | 84 | 1017.1 |
| 20260506115836 | 11 | 27 | 3.2 | 6.4 | 0.00 | 0.08 | 0.00 | 84 | 1017.1 |
| 20260506115330 | 11 | 42 | 0.0 | 3.2 | 0.00 | 0.08 | 0.00 | 84 | 1017.1 |
| 20260506114828 | 11 | 79 | 0.0 | 0.0 | 0.00 | 0.08 | 0.00 | 84 | 1017.1 |
| 20260506114327 | 11 | 79 | 0.0 | 0.0 | 0.00 | 0.08 | 0.00 | 84 | 1017.1 |
| 20260506113824 | 11 | 79 | 0.0 | 3.2 | 0.00 | 0.08 | 0.00 | 84 | 1017.1 |
| 20260506113342 | 11 | 55 | 0.0 | 3.2 | 0.00 | 0.08 | 0.00 | 84 | 1017.1 |
| 20260506112854 | 11 | 73 | 0.0 | 0.0 | 0.00 | 0.08 | 0.00 | 84 | 1017.2 |
| 20260506112330 | 11 | 93 | 0.0 | 0.0 | 0.00 | 0.08 | 0.00 | 84 | 1017.1 |
| 20260506111828 | 11 | 93 | 0.0 | 0.0 | 0.00 | 0.08 | 0.00 | 84 | 1017.0 |
| 20260506111325 | 11 | 93 | 0.0 | 3.2 | 0.00 | 0.08 | 0.00 | 83 | 1017.0 |
| 20260506110821 | 11 | 92 | 0.0 | 3.2 | 0.00 | 0.08 | 0.00 | 83 | 1017.1 |
| 20260506110332 | 11 | 18 | 0.0 | 3.2 | 0.00 | 0.08 | 0.00 | 83 | 1017.0 |
| 20260506105844 | 12 | 53 | 0.0 | 3.2 | 0.00 | 0.08 | 0.00 | 83 | 1017.0 |
| 20260506105317 | 12 | 46 | 0.0 | 0.0 | 0.00 | 0.08 | 0.00 | 83 | 1017.1 |
| 20260506104835 | 12 | 46 | 0.0 | 4.8 | 0.00 | 0.08 | 0.00 | 83 | 1017.0 |
| 20260506104354 | 12 | 46 | 1.6 | 4.8 | 0.00 | 0.08 | 0.00 | 83 | 1017.0 |
| 20260506103830 | 12 | 51 | 0.0 | 3.2 | 0.00 | 0.08 | 0.00 | 83 | 1017.0 |
| 20260506103327 | 12 | 96 | 0.0 | 6.4 | 0.00 | 0.08 | 0.00 | 83 | 1017.0 |
| 20260506102821 | 12 | 13 | 1.6 | 8.0 | 0.00 | 0.08 | 0.00 | 83 | 1017.0 |
| 20260506102318 | 12 | 27 | 4.8 | 8.0 | 0.00 | 0.08 | 0.00 | 83 | 1017.0 |
| 20260506101816 | 12 | 38 | 1.6 | 6.4 | 0.00 | 0.08 | 0.00 | 83 | 1017.0 |
| 20260506101329 | 12 | 23 | 1.6 | 8.0 | 0.00 | 0.08 | 0.00 | 83 | 1016.9 |
| 20260506100826 | 12 | 39 | 3.2 | 8.0 | 0.00 | 0.08 | 0.00 | 83 | 1016.9 |
| 20260506100340 | 12 | 35 | 1.6 | 8.0 | 0.00 | 0.08 | 0.00 | 82 | 1016.9 |